Dewpoint
41 30 30 24 20 26 27 33 41 43 43 49 49 44 46 50 45 45 60 60 57 60 63 66 70 71 72 72 71 72 71 70 70 70 70 70 71 70 69 67 66 67 66 66 65 66 66 67 67
30 20 22 21 22 23 27 34 37 42 48 49 48 46 43 47 55 58 59 59 57 59 61 64 69 70 70 71 71 72 71 71 70 69 69 69 69 68 66 65 66 66 65 65 66 66 68 68 67
24 18 17 21 20 20 24 32 42 46 48 47 46 49 49 48 54 57 60 56 55 57 60 65 68 68 69 69 69 70 70 70 70 70 70 70 69 68 67 66 66 66 67 66 66 68 67 66 65
19 17 25 16 19 27 29 39 43 44 46 46 44 44 53 57 56 57 59 56 54 54 57 65 67 67 68 67 67 67 69 69 70 70 69 68 67 66 64 63 63 66 67 67 66 67 67 65 64
16 21 19 19 26 32 36 41 42 40 42 44 45 45 50 58 61 59 59 58 53 52 55 59 66 67 67 66 66 67 67 68 68 69 69 68 68 68 67 64 66 66 64 64 63 64 65 63 62
17 24 19 21 28 34 38 42 38 34 39 43 42 42 50 60 59 60 59 56 52 52 56 57 65 67 66 66 66 66 67 66 67 67 67 67 67 66 67 66 66 66 66 64 64 64 64 64 64
17 18 18 21 24 25 29 34 31 31 35 36 41 37 51 56 58 59 57 54 53 53 55 57 59 62 65 65 65 65 66 66 66 66 66 65 66 66 66 66 65 65 65 65 64 63 63 62 62
13 13 13 13 11 13 14 19 29 26 28 43 43 34 43 52 59 58 55 54 55 57 57 59 60 59 61 61 64 65 65 66 66 65 64 64 65 64 65 64 64 63 63 63 62 61 60 59 59
13 7 7 8 8 11 13 12 17 31 33 37 39 41 47 55 58 56 54 54 56 57 61 61 59 62 62 60 61 63 64 65 65 64 64 62 61 61 61 63 62 61 61 60 59 58 57 56 57
12 8 9 10 12 10 11 11 16 23 23 28 37 46 52 57 57 55 52 53 54 57 59 61 63 63 63 58 61 62 61 61 62 62 63 61 63 62 59 61 61 61 60 59 58 57 55 54 51
16 10 14 12 14 13 13 14 14 15 16 18 20 38 52 56 56 56 52 50 52 56 58 61 64 65 64 60 59 57 58 60 62 64 63 63 63 63 62 61 60 61 59 56 55 54 51 52 53
14 16 10 14 17 15 13 15 16 16 16 23 28 37 48 51 52 53 50 48 51 54 57 61 63 64 63 57 56 58 57 59 59 62 64 63 60 61 61 59 58 59 57 58 56 54 56 56 54
20 21 22 21 19 21 22 19 19 18 19 23 33 43 45 47 47 49 49 47 49 51 55 61 63 62 58 60 59 61 61 59 60 61 62 63 59 59 59 58 57 56 55 54 55 54 54 53 51
25 23 23 23 23 22 22 21 21 19 20 23 34 38 43 45 45 48 51 51 52 54 56 61 61 59 57 57 60 60 61 59 60 58 59 63 62 59 57 54 53 52 52 52 53 53 52 48 47
25 22 23 23 23 25 21 18 17 22 21 21 30 36 41 44 46 47 48 50 50 52 56 60 59 57 57 56 57 56 55 58 55 54 58 59 60 57 57 53 51 49 51 56 56 54 53 49 45
20 20 15 23 24 25 24 18 21 26 25 24 23 28 40 44 46 47 50 51 53 55 55 57 55 55 56 55 55 53 52 53 51 52 52 55 56 57 55 51 50 51 52 52 51 51 49 48 45
15 9 12 18 24 24 23 18 24 24 24 26 27 28 29 37 45 49 51 52 52 53 54 55 57 56 54 54 53 54 54 52 49 51 49 51 53 54 54 51 51 53 51 51 51 50 50 47 44
12 12 18 16 21 23 24 23 22 25 25 25 26 27 28 32 41 46 46 46 45 49 52 53 54 54 53 53 53 50 50 48 48 46 45 48 47 50 51 49 51 51 50 49 49 51 49 48 45
18 17 17 18 24 26 26 21 23 25 26 28 28 29 30 33 37 37 39 40 41 45 48 50 50 51 50 50 47 45 44 43 42 41 44 47 46 48 49 47 48 49 50 50 51 49 50 49 47
21 19 19 23 25 28 25 21 23 25 27 28 28 30 30 32 34 37 40 43 44 45 46 45 44 43 42 42 43 44 44 42 44 45 47 46 47 47 45 47 47 48 47 49 50 51 49 48 47
24 23 25 24 26 28 25 23 22 24 26 27 29 30 30 32 33 35 38 42 43 44 44 42 43 44 45 45 43 44 44 43 41 42 41 43 44 44 45 45 46 47 47 46 48 49 49 47 47
23 25 29 28 26 18 27 18 23 23 26 29 32 35 36 35 33 35 38 41 45 46 46 45 44 43 44 46 44 45 42 40 42 43 42 41 42 42 42 44 45 47 46 46 46 45 47 47 45
28 32 30 30 28 25 24 19 25 24 26 29 34 36 37 37 37 37 39 41 43 46 47 46 44 44 44 45 46 44 43 42 42 42 43 42 41 40 39 42 45 45 45 45 47 48 48 46 45
32 31 30 31 30 26 27 25 23 24 28 30 34 36 38 39 39 39 40 41 41 45 46 45 43 42 44 44 45 45 43 43 41 40 38 36 36 36 39 40 44 45 45 44 44 45 44 44 44
30 29 26 27 27 25 27 24 29 30 31 33 34 36 38 39 40 39 39 40 42 43 45 43 43 41 41 42 42 42 41 41 39 39 37 38 36 36 39 42 43 43 44 43 43 43 42 42 41
31 30 30 21 21 23 27 21 27 31 32 34 35 36 38 39 40 39 39 41 42 43 44 44 42 41 40 40 40 41 41 40 39 39 39 38 37 38 42 43 43 42 41 41 42 43 42 40 39
31 32 32 30 31 29 23 27 31 32 33 33 34 35 36 38 38 38 39 41 42 43 44 45 42 40 40 41 42 43 41 42 41 40 39 37 39 38 41 42 41 41 42 41 41 41 41 41 40
32 32 31 33 31 19 16 22 22 32 32 33 34 35 37 38 39 39 39 41 42 42 43 44 41 39 41 41 43 41 42 42 41 39 37 38 39 40 40 41 40 39 40 40 41 40 40 38 38
32 32 32 30 32 28 24 17 31 30 32 33 34 37 37 38 39 39 40 41 41 41 40 38 39 40 41 42 42 43 42 41 38 36 36 38 40 39 37 39 39 39 39 39 38 37 36 34 33
32 31 29 31 26 31 29 22 29 30 34 35 35 37 39 38 37 38 39 40 38 37 36 38 40 39 39 38 39 40 40 39 36 36 37 38 37 40 40 39 39 37 35 36 36 32 30 28 27
Lifted_Index
13 13 12 9 7 5 4 3 1 0 -1 -1 -1 -1 -2 -2 -3 -4 -4 -4 -3 -4 -5 -5 -6 -6 -7 -8 -8 -8 -8 -8 -7 -7 -7 -7 -7 -7 -6 -5 -5 -5 -5 -5 -6 -6 -7 -7 -6
13 12 11 8 6 5 4 3 1 -0 -1 -1 -2 -2 -2 -3 -4 -4 -4 -3 -3 -3 -4 -5 -5 -6 -7 -7 -8 -8 -8 -8 -7 -7 -7 -7 -7 -7 -6 -5 -5 -5 -5 -5 -6 -6 -6 -6 -6
12 11 9 7 5 4 3 2 0 -1 -1 -2 -2 -2 -3 -3 -4 -5 -4 -3 -2 -2 -3 -5 -5 -6 -6 -6 -7 -7 -7 -7 -7 -7 -7 -7 -7 -6 -5 -5 -4 -5 -5 -5 -5 -6 -5 -5 -4
10 9 8 6 5 3 2 1 -0 -1 -2 -2 -2 -2 -3 -4 -4 -4 -4 -2 -1 -1 -2 -4 -4 -5 -5 -5 -5 -6 -6 -6 -7 -7 -7 -7 -6 -6 -5 -4 -4 -5 -5 -5 -5 -5 -4 -3 -3
8 7 6 4 3 2 1 -0 -1 -1 -1 -2 -2 -2 -3 -5 -5 -4 -4 -3 -1 -1 -2 -3 -4 -4 -4 -4 -4 -4 -5 -5 -6 -6 -6 -6 -5 -5 -5 -4 -4 -4 -4 -4 -3 -4 -3 -3 -2
6 5 4 3 2 1 0 -0 -0 -0 -1 -1 -1 -2 -3 -4 -5 -4 -4 -2 -1 -1 -1 -2 -3 -3 -3 -3 -3 -4 -4 -4 -4 -4 -5 -5 -4 -4 -4 -4 -4 -4 -3 -3 -2 -2 -2 -2 -2
5 4 3 2 2 2 2 1 1 1 1 0 -0 -1 -2 -4 -4 -4 -3 -2 -1 -1 -2 -2 -3 -3 -3 -3 -3 -3 -3 -3 -3 -3 -3 -3 -3 -3 -3 -3 -3 -3 -2 -2 -2 -1 -1 -1 -1
4 3 3 3 3 3 4 4 3 3 2 1 1 -0 -1 -3 -4 -3 -2 -2 -2 -2 -3 -3 -3 -3 -3 -2 -2 -2 -2 -2 -2 -2 -2 -2 -2 -2 -2 -2 -1 -1 -1 -1 -0 -0 -0 0 0
3 3 3 3 4 4 5 5 5 4 3 2 1 -0 -2 -3 -4 -3 -2 -2 -2 -3 -3 -4 -4 -4 -3 -2 -2 -2 -2 -2 -2 -2 -2 -2 -2 -2 -2 -1 -0 0 0 1 1 1 2 2 2
3 3 3 4 4 5 5 5 5 4 3 3 2 0 -2 -3 -4 -3 -2 -2 -2 -3 -4 -4 -4 -4 -3 -2 -2 -2 -2 -2 -3 -3 -3 -2 -2 -2 -2 -1 -0 0 1 1 2 2 3 3 3
3 3 4 5 5 5 5 5 5 5 4 4 3 1 -2 -3 -3 -3 -2 -2 -2 -3 -3 -4 -5 -4 -3 -2 -2 -2 -2 -2 -3 -3 -3 -3 -3 -2 -2 -2 -1 -1 -0 1 1 2 2 3 3
3 4 4 5 5 5 5 5 5 5 5 5 3 1 -1 -2 -2 -2 -2 -1 -1 -2 -3 -4 -4 -4 -3 -2 -2 -2 -2 -2 -3 -3 -3 -3 -2 -2 -2 -2 -1 -1 -0 0 1 2 2 2 3
3 3 4 4 4 5 5 5 5 5 5 5 3 1 -0 -1 -1 -1 -1 -1 -1 -1 -3 -4 -4 -3 -2 -2 -2 -2 -2 -2 -2 -2 -3 -3 -2 -2 -1 -1 -0 0 1 1 1 2 2 3 4
3 3 3 4 4 4 4 4 5 5 5 5 3 1 0 -0 -0 -1 -1 -1 -1 -2 -3 -4 -4 -3 -2 -1 -2 -2 -2 -2 -2 -1 -2 -2 -2 -1 -0 1 1 2 2 2 2 2 3 4 5
3 3 3 3 4 4 4 4 4 5 5 5 4 2 1 0 -0 -0 -1 -1 -1 -2 -3 -4 -3 -2 -1 -1 -1 -1 -1 -1 -0 0 0 -0 -0 0 1 2 2 3 3 2 2 2 3 4 5
4 3 3 4 4 4 4 4 4 4 5 5 4 3 2 1 -0 -1 -1 -1 -2 -2 -3 -3 -3 -2 -1 -1 -0 -0 0 1 1 2 2 2 1 1 2 2 3 3 3 3 3 3 3 4 5
3 3 3 4 4 4 4 4 4 4 4 4 4 4 3 2 0 -1 -1 -1 -1 -2 -2 -2 -2 -1 -0 0 0 1 1 2 3 3 3 3 3 3 3 3 4 4 3 3 3 3 3 4 4
3 3 3 3 4 4 4 4 4 4 4 4 4 4 4 3 1 0 -0 0 0 0 -0 -1 -1 -0 0 1 2 2 2 3 3 4 4 4 4 4 4 4 4 4 4 4 3 3 3 3 4
3 3 3 4 4 4 4 4 4 4 4 4 4 4 4 4 3 2 2 2 2 2 2 1 1 1 2 2 3 3 4 4 4 5 5 5 5 6 6 5 5 5 4 4 3 3 3 3 3
4 3 3 4 5 4 4 4 4 5 5 5 5 4 4 4 4 4 3 3 3 4 3 3 3 3 3 4 4 4 5 5 5 5 5 6 6 6 6 6 5 5 4 3 3 2 2 2 2
4 4 4 4 4 4 4 4 4 5 5 5 5 4 4 4 4 4 4 4 4 4 4 4 4 4 4 5 5 5 5 5 5 5 5 6 6 7 7 6 5 5 4 3 3 2 2 2 2
4 4 4 4 4 3 3 3 4 4 4 4 4 4 4 4 4 4 4 4 4 4 4 5 5 5 5 5 5 5 5 5 5 5 5 6 6 7 7 6 6 5 5 4 4 3 3 2 2
4 4 4 4 3 3 3 3 3 4 4 4 4 4 4 4 4 4 4 5 5 5 5 5 5 6 6 6 5 5 5 5 5 5 5 6 7 7 7 6 6 6 5 5 5 4 4 3 3
4 4 3 3 2 2 2 3 3 3 3 4 4 4 4 4 4 4 4 5 5 5 5 5 6 6 6 6 5 5 5 6 6 6 7 7 7 7 7 7 6 6 6 6 6 6 5 5 5
3 3 2 2 1 2 2 3 3 3 4 4 4 5 4 4 4 4 4 4 5 5 5 5 5 6 6 6 6 6 7 7 7 7 8 8 8 8 7 7 7 6 7 7 7 7 7 7 7
3 2 2 1 1 2 2 3 3 3 4 4 4 5 5 4 4 4 4 4 4 5 5 5 5 6 6 6 6 6 7 7 7 7 8 8 8 8 7 7 7 7 7 8 8 8 8 8 8
2 2 2 2 2 2 2 3 3 3 3 4 4 4 4 4 4 4 4 4 5 5 5 6 6 6 6 6 6 6 6 6 7 7 8 8 8 8 7 7 7 7 7 8 8 8 8 8 8
2 2 2 2 2 1 2 2 3 3 3 3 4 4 4 4 4 4 5 5 5 6 6 6 6 6 6 6 6 6 6 6 7 8 8 8 8 7 7 7 7 7 7 7 7 6 6 6 6
3 3 3 2 2 2 2 2 3 3 3 4 4 4 4 4 4 5 5 5 6 6 6 7 7 7 6 6 6 6 6 7 8 8 8 8 7 7 7 7 6 6 6 6 6 5 5 5 5
3 3 3 3 2 2 2 3 3 3 4 4 4 4 4 4 5 5 5 6 6 6 7 7 7 7 7 7 7 6 6 7 8 8 8 7 7 7 7 6 6 6 5 5 5 4 5 5 5